Location: Bacharowice
(49.9333°N, 19.5833°E)
Time: 22:16:29
(UTC+00:00)

CZ-4C R/B - Pass Details

Date: 11 May 2021
Orbit: 609 x 1393 km, 63.4° (Epoch: 20 June)

Event Time Altitude Azimuth Distance (km) Brightness Sun altitude
Rises 18:40:25 0° 316° (NW) 3,692 7.8 -4.2°
Reaches altitude 10° 18:42:51 10° 319° (NW) 2,850 6.6 -4.6°
Maximum altitude 18:49:43 64° 41° (NE) 1,303 3.2 -5.4°
Drops below altitude 10° 18:57:51 10° 123° (ESE) 3,351 4.6 -6.5°
Enters shadow 18:58:35 - 124° (ESE) 3,599 4.8 -6.6°
